Location: Drocourt
(49.0571°N, 1.7669°E)
Time: 19:56:40
(UTC+00:00)

S-56A Canister/Altair - Pass Details

Date: 14 April 2024
Orbit: 638 x 2488 km, 38.9° (Epoch: 20 May)

Event Time Altitude Azimuth Distance (km) Brightness Sun altitude
Rises 20:10:36 0° 249° (WSW) 3,944 11.7 -13.6°
Reaches altitude 10° 20:13:04 10° 243° (WSW) 3,195 11.1 -14.0°
Maximum altitude 20:20:49 47° 173° (S) 2,055 9.4 -15.0°
Enters shadow 20:29:11 18° 111° (ESE) 3,788 10.4 -16.1°
Drops below altitude 10° 20:32:07 10° 106° (ESE) 4,612 - -16.5°
Sets 20:36:27 0° 101° (ESE) 5,833 - -17.1°
